GFSGL_700_rhum_225.txt.gz
RH
19 22 33 40 34 42 44 44 48 47 46 42 97 90 90 96 81 84 77 78 81 80 56 55 54 52 59 42 18 16 6 6 7 11 17 21 20 22 24 26 28 31 35
26 32 35 27 34 37 45 50 52 43 63 100 80 98 98 98 88 86 79 92 86 57 54 54 54 55 61 14 42 14 9 16 16 17 21 20 21 24 26 25 30 33 38
26 26 28 29 33 40 44 54 56 54 61 100 99 93 95 94 97 93 94 86 57 50 52 53 55 58 23 48 14 13 19 23 24 23 21 22 25 29 31 34 36 41 50
27 29 30 32 35 42 47 52 48 49 99 90 97 97 98 91 98 95 88 61 47 50 55 54 56 45 28 45 26 24 27 27 27 26 24 24 27 37 40 42 45 56 66
34 33 33 37 36 48 51 42 42 71 93 100 100 100 92 100 98 93 66 48 49 53 54 55 56 28 49 24 32 31 30 30 30 28 27 27 36 41 41 51 49 63 81
40 43 41 40 48 54 55 52 51 48 79 96 100 97 99 99 98 78 52 49 51 52 52 60 32 42 29 38 35 35 34 32 32 31 31 32 45 30 33 51 66 79 83
34 32 31 37 46 53 58 59 47 54 76 98 99 99 98 99 91 60 48 48 52 50 54 36 39 37 42 41 39 39 38 36 34 36 37 48 49 41 38 59 78 80 81
37 37 37 36 45 53 57 56 54 60 78 94 100 99 100 96 73 50 47 49 51 55 42 41 39 42 46 44 42 40 38 38 38 44 47 57 61 46 45 62 83 87 88
36 30 32 45 53 55 57 55 58 72 85 90 96 100 97 74 51 45 47 52 57 84 38 42 47 47 47 45 40 39 37 38 40 44 47 56 63 55 50 61 82 78 83
26 26 44 51 55 59 58 62 70 86 90 93 93 90 76 58 52 52 58 63 82 46 38 50 48 47 46 41 38 36 35 37 40 43 46 48 57 66 61 56 65 70 71
42 40 52 52 54 60 67 72 79 81 88 94 97 93 67 53 65 67 73 86 80 64 52 52 50 48 43 38 34 30 29 28 33 33 41 45 54 72 72 72 69 72 71
46 51 50 51 59 65 65 68 80 94 100 100 98 97 76 82 92 96 89 96 59 61 56 54 52 49 43 34 27 24 20 21 24 26 36 44 51 69 84 84 80 81 81
49 49 56 55 68 72 75 83 99 100 100 99 96 89 94 96 96 94 85 64 69 61 56 56 56 52 42 31 23 18 21 23 26 29 34 41 52 58 74 87 86 88 88
49 54 55 66 67 72 87 100 100 100 99 98 98 96 96 95 93 88 75 78 72 67 63 60 56 51 38 26 20 21 23 27 27 31 36 47 54 59 62 78 82 90 94
52 49 55 62 64 81 100 100 100 99 99 99 95 95 96 87 87 77 89 90 82 72 68 63 54 42 34 26 21 24 26 28 29 36 42 51 56 62 64 66 75 84 90
57 61 60 69 94 100 100 99 100 97 96 95 96 96 94 92 90 78 87 89 79 75 68 56 41 37 32 30 28 33 33 33 36 43 52 56 61 65 68 68 72 82 85
81 83 90 98 98 100 100 100 95 96 96 96 97 96 96 86 57 61 90 85 81 74 58 45 39 37 36 34 34 34 33 33 39 45 52 58 65 70 70 70 73 82 87
94 89 91 98 100 100 98 96 96 96 96 96 96 87 72 61 61 85 90 88 83 66 49 42 42 41 39 38 38 38 38 37 40 47 52 58 67 71 76 74 78 87 93
95 99 100 99 97 96 96 96 96 96 96 94 87 70 57 57 79 93 94 93 83 54 46 45 45 44 42 42 39 36 34 34 37 44 50 58 63 66 77 82 86 92 95
99 98 97 96 96 96 96 96 96 96 88 72 59 49 50 60 77 94 96 92 63 52 50 49 48 46 44 41 39 36 33 33 33 38 53 62 66 71 80 88 94 93 95
96 96 96 96 97 97 97 87 67 65 52 46 49 54 60 88 100 98 92 65 57 56 55 51 50 48 46 42 38 35 33 30 30 40 55 62 70 76 83 92 99 96 95
96 96 95 94 80 36 30 34 38 39 43 48 51 63 87 98 98 88 68 62 60 58 55 53 52 49 44 38 31 25 21 20 24 32 48 60 72 80 88 96 97 97 97
90 68 47 34 31 34 35 35 38 44 50 56 66 80 95 97 81 69 67 64 61 58 58 56 51 40 28 22 19 17 18 18 20 22 33 49 72 85 91 95 96 99 99
37 30 22 22 24 28 35 40 50 58 59 66 81 94 90 76 72 69 64 62 62 61 56 45 29 20 16 15 15 14 12 9 8 9 9 18 37 64 85 92 94 96 96
28 28 28 29 34 44 52 52 54 63 72 80 79 78 73 71 68 65 66 66 62 56 36 21 15 14 14 12 8 4 4 4 4 4 4 5 5 6 10 18 38 60 75
41 45 45 47 46 44 45 47 57 63 63 59 68 76 72 69 69 69 70 65 54 27 16 14 12 8 6 4 4 4 4 4 5 5 5 5 5 6 6 5 6 6 6

GFSGL_700_rhum_228.txt.gz
RH
24 22 22 21 19 23 45 62 48 47 45 44 50 50 77 83 97 96 98 96 93 83 83 78 90 63 54 56 59 61 57 41 39 33 14 24 26 24 22 20 19 16 15
25 24 23 22 20 27 58 50 48 50 53 51 50 62 66 71 99 86 99 98 92 88 79 95 77 54 57 61 62 62 42 45 30 16 27 28 26 25 23 21 22 23 23
26 24 24 23 23 38 52 49 48 52 48 57 57 49 88 100 99 96 99 90 98 91 90 92 58 55 58 61 62 54 49 23 29 29 29 28 28 25 23 25 28 28 27
27 25 25 30 29 43 50 49 51 49 59 53 39 43 95 100 99 99 90 87 83 85 94 68 52 56 59 61 60 54 28 31 33 32 30 29 27 26 27 28 32 28 27
30 28 30 28 32 44 48 47 49 60 51 42 37 85 95 95 80 98 99 88 96 98 90 55 53 54 59 60 54 23 34 36 34 31 31 29 29 26 30 36 31 30 50
32 32 32 34 44 52 54 53 55 60 55 52 51 96 78 98 100 90 97 100 99 100 73 49 50 54 58 61 33 34 38 36 34 31 31 28 30 32 43 40 33 41 54
35 34 36 38 48 61 60 52 50 62 62 50 42 45 87 71 96 100 98 100 100 80 53 47 51 64 70 46 38 42 40 37 32 30 28 29 31 35 43 43 40 44 46
37 37 40 42 47 51 48 45 50 63 65 52 52 50 82 96 100 100 99 99 95 68 55 54 68 72 63 39 44 43 40 36 34 29 26 26 34 38 46 47 46 47 52
42 39 37 40 38 42 47 47 56 64 64 59 63 65 75 97 100 100 100 89 69 71 73 77 76 80 48 47 47 45 40 35 30 24 18 22 25 35 45 59 56 57 62
34 36 40 43 43 36 38 53 60 66 65 68 69 77 87 96 100 100 88 69 59 69 71 77 81 80 62 50 49 43 36 32 30 21 18 19 25 32 44 55 66 61 59
48 49 45 44 40 37 48 64 64 64 68 78 89 92 95 97 96 88 78 63 62 74 89 90 68 59 54 51 47 40 33 28 26 26 24 23 26 29 39 51 60 70 72
50 53 52 46 49 48 56 66 65 66 70 85 98 100 100 99 95 86 80 74 79 92 85 61 65 58 53 52 47 38 29 22 22 18 18 23 24 28 35 46 51 58 71
40 50 52 49 52 56 66 62 64 72 79 98 100 100 100 99 85 91 92 92 95 88 66 69 66 59 55 52 48 34 26 17 15 15 15 17 18 25 34 40 50 52 62
38 50 54 56 52 53 66 64 64 77 86 89 100 100 100 89 93 98 95 95 96 78 76 77 76 65 56 54 43 30 24 18 15 16 16 20 24 32 35 42 50 53 58
52 53 43 59 50 46 52 56 75 99 100 100 100 99 98 97 95 93 95 94 90 87 89 92 85 68 59 44 33 29 24 23 21 19 22 26 32 39 42 51 56 59 59
59 63 59 60 54 57 61 66 99 100 98 98 99 100 97 94 95 96 94 94 93 95 94 85 75 64 45 34 30 29 30 29 25 27 33 37 40 43 48 55 61 65 67
63 67 61 66 68 65 76 91 100 99 100 99 98 95 96 97 95 96 95 94 96 94 88 83 69 48 38 35 37 36 36 33 32 34 36 38 40 41 44 47 54 61 67
72 68 75 95 92 94 100 100 100 100 100 98 96 96 97 96 96 93 84 85 97 90 85 73 53 44 42 42 41 40 39 36 34 34 34 37 40 42 45 47 52 61 69
94 79 79 85 94 100 100 100 98 99 97 96 96 97 96 94 88 76 77 95 93 93 84 59 48 47 48 46 45 41 38 35 33 32 33 35 39 44 52 56 61 67 73
100 99 100 99 99 97 98 99 97 96 97 96 96 96 94 88 72 84 95 100 99 94 66 52 51 50 48 47 43 40 37 35 34 32 32 33 41 50 59 67 71 74 78
100 97 98 100 99 98 98 97 97 97 96 96 96 92 74 72 78 87 100 100 96 70 58 56 54 51 49 46 42 38 34 28 24 24 25 30 41 57 69 75 79 82 87
98 92 97 97 98 97 97 97 97 96 95 86 64 57 56 66 90 100 100 94 69 62 59 55 52 51 49 44 35 25 21 19 19 19 20 28 47 68 78 82 86 91 94
98 99 96 96 97 98 98 96 83 56 45 45 54 62 70 84 97 98 88 69 65 62 57 55 55 50 36 25 19 16 16 14 14 12 14 23 42 65 80 87 90 94 93
96 96 97 97 90 58 41 36 36 40 46 52 57 63 82 97 96 77 67 65 62 59 60 56 41 25 16 14 13 12 8 5 4 4 4 7 14 29 52 81 92 93 93
85 55 39 37 38 37 37 38 40 44 51 58 70 85 95 89 72 67 65 63 63 61 51 32 18 14 13 9 6 4 3 4 4 4 4 5 5 5 7 15 31 55 79
34 33 36 34 32 33 39 46 52 57 64 74 89 90 78 71 68 68 66 64 59 48 24 14 14 10 6 4 3 4 4 4 5 5 5 5 5 5 5 5 5 5 6

GFSGL_700_rhum_234.txt.gz
RH
24 26 26 27 26 24 23 22 21 20 20 24 32 43 53 60 55 54 49 43 49 52 60 94 87 94 100 91 86 83 82 78 65 58 59 54 53 54 40 19 17 14 12
26 25 25 24 23 24 25 24 22 22 21 21 24 35 48 55 58 57 46 43 50 58 78 81 88 99 98 83 89 89 84 81 63 59 61 59 58 54 25 19 14 12 13
25 23 18 17 18 19 19 19 21 23 23 22 23 29 47 61 60 53 47 44 52 80 98 87 80 73 83 97 91 88 89 82 66 60 63 64 60 34 22 18 12 14 16
33 25 18 33 27 23 20 18 18 17 20 23 26 41 61 66 50 48 39 38 52 100 86 100 96 97 99 99 95 95 92 84 74 66 73 66 43 26 22 14 18 21 17
43 39 35 38 36 26 20 19 21 24 26 29 39 57 65 52 48 37 33 34 60 71 94 100 92 90 94 94 93 94 91 88 85 81 72 53 31 27 21 11 11 14 19
47 42 36 35 38 33 28 22 21 25 29 41 56 62 51 49 42 40 42 36 40 83 100 99 96 100 95 88 96 82 84 88 76 74 66 38 32 27 17 9 6 6 8
48 47 44 41 34 30 36 32 30 31 42 52 58 48 49 49 49 46 48 44 58 78 100 100 96 92 95 92 81 86 85 75 73 74 48 40 33 24 11 8 7 8 6
38 37 46 47 41 36 37 44 46 47 57 58 51 52 54 64 63 54 44 51 64 95 100 88 94 88 73 86 93 79 72 74 72 64 48 39 29 17 8 5 5 6 10
34 33 32 37 47 44 43 60 66 68 63 54 55 59 60 67 68 57 47 48 53 94 78 97 93 70 96 90 73 69 74 73 68 51 44 35 25 12 7 6 6 5 6
22 26 31 30 33 45 53 64 63 64 65 67 68 66 68 70 82 62 53 49 69 68 84 79 77 96 82 77 72 78 75 63 55 50 42 30 15 7 6 6 5 5 5
19 19 27 40 30 37 48 49 69 68 68 70 78 77 70 70 77 71 62 59 69 77 78 82 81 81 79 76 82 82 62 59 55 48 38 22 10 7 7 6 5 4 5
23 21 20 27 39 44 44 50 49 47 52 68 72 75 67 67 74 78 70 82 92 89 86 91 94 85 79 89 87 66 62 58 54 46 31 17 11 10 10 8 8 8 7
20 22 25 27 37 54 56 53 46 51 54 58 64 57 65 70 74 83 84 97 100 97 92 97 93 86 90 87 77 65 63 60 52 42 27 18 18 17 16 16 15 13 14
18 21 25 28 29 54 60 59 56 50 51 56 58 64 86 78 84 88 95 98 99 100 100 97 94 92 90 90 77 76 77 64 51 33 24 21 21 22 23 22 18 16 17
13 18 24 26 28 41 55 64 62 57 54 58 65 65 64 78 88 100 100 100 100 99 98 96 96 87 88 90 86 86 76 59 38 29 27 27 27 28 24 22 20 19 21
30 13 19 26 28 35 38 46 61 60 56 59 67 96 99 100 100 100 99 100 100 98 96 94 94 92 92 90 88 76 60 43 34 31 29 28 27 25 24 22 21 23 25
37 21 15 24 29 36 42 40 62 64 62 64 90 100 100 99 99 86 100 98 98 95 95 97 94 89 92 84 78 72 49 35 33 30 29 29 27 25 25 25 26 27 30
49 32 20 20 27 43 46 46 72 73 66 60 77 100 98 93 99 100 99 97 95 94 94 95 94 89 86 85 72 46 38 35 35 32 30 29 28 27 24 24 24 28 35
61 39 35 43 41 59 77 68 77 92 75 75 97 94 98 100 98 98 96 97 96 94 95 95 91 86 86 74 50 40 37 37 35 33 32 30 25 22 20 20 26 33 47
61 50 80 58 51 96 91 94 95 96 87 89 100 100 100 99 99 97 95 97 96 95 93 84 86 84 81 53 44 40 39 38 36 34 27 21 16 15 18 24 36 54 60
81 86 56 43 42 100 100 98 94 100 99 96 100 100 99 97 97 96 97 96 93 88 78 72 74 80 54 46 41 40 40 38 31 21 13 12 12 15 20 35 55 66 67
97 100 88 71 99 100 100 100 100 100 99 99 99 96 97 98 94 96 98 88 84 73 76 85 77 52 46 42 41 40 34 23 13 12 11 9 7 10 24 45 58 70 74
86 98 98 99 99 99 100 99 100 99 98 97 96 96 96 96 95 96 92 79 76 85 87 69 51 46 43 42 37 26 14 12 10 7 5 4 4 7 19 31 54 75 82
96 97 97 97 100 98 96 95 96 96 96 96 96 96 96 96 96 88 71 79 87 84 60 51 45 44 42 31 15 12 9 7 4 3 3 4 4 5 7 13 34 60 77
96 96 96 96 97 96 96 96 95 96 97 96 96 96 96 89 68 72 80 85 75 57 50 45 44 37 18 13 10 7 4 3 3 3 4 4 4 4 5 6 8 16 38
97 96 95 96 96 96 96 96 96 96 94 96 94 79 66 67 72 80 83 65 56 49 47 43 27 14 12 8 5 3 3 3 4 4 4 4 4 4 4 4 5 5 7

GFSGL_700_rhum_237.txt.gz
RH
21 20 18 18 27 28 26 25 25 25 24 23 24 25 27 29 34 46 53 58 47 48 50 48 47 52 60 87 99 96 99 96 88 86 85 80 71 60 60 60 55 43 20
34 32 30 30 29 29 28 27 25 25 24 24 24 25 28 34 40 48 53 54 58 58 56 50 51 60 65 98 90 97 89 92 91 86 87 85 76 72 71 66 56 34 16
30 30 30 29 28 27 26 27 27 26 25 24 22 22 23 24 28 38 41 50 64 66 58 50 45 62 79 86 74 84 85 94 94 91 91 90 84 76 68 63 46 24 11
36 29 28 27 26 24 22 21 21 23 24 24 24 24 24 24 26 31 39 55 69 68 59 47 59 96 100 86 74 86 94 96 93 92 85 86 79 68 63 50 31 20 6
50 45 43 41 35 28 22 28 25 20 18 18 19 19 20 21 29 36 45 59 72 66 52 49 54 99 79 98 99 96 93 93 94 90 84 79 69 61 56 41 29 16 6
54 53 50 47 44 40 36 34 38 22 20 22 21 23 25 28 32 44 58 72 69 57 43 37 54 75 82 99 90 98 94 89 94 84 78 69 60 59 51 37 26 11 4
52 51 50 49 47 44 40 37 37 34 27 25 25 26 27 27 37 54 70 72 60 44 42 40 55 69 94 98 99 87 88 86 84 78 68 65 61 58 42 32 20 9 4
45 47 45 45 47 47 46 43 36 33 35 37 35 30 28 38 52 75 75 66 54 46 45 46 59 86 99 99 92 86 76 86 74 71 68 64 59 47 38 28 15 7 6
28 36 40 40 39 40 45 48 44 36 36 46 49 43 47 54 68 75 68 65 58 54 50 54 67 98 100 94 93 74 85 75 72 73 66 58 49 43 33 19 10 6 4
18 20 29 31 37 35 34 43 49 55 44 52 52 56 70 78 74 72 70 71 62 61 50 50 62 94 92 90 77 75 68 74 76 72 62 53 48 39 24 10 8 8 6
15 16 16 20 25 30 31 34 42 51 64 54 65 76 86 80 77 77 76 76 82 71 66 76 88 86 78 73 68 69 79 78 75 66 56 51 45 32 15 9 9 9 7
13 15 16 17 19 20 24 34 37 44 59 65 74 80 77 76 77 86 84 98 98 99 99 92 88 77 78 75 82 89 84 75 72 60 54 50 39 24 14 13 13 11 9
14 12 13 14 18 16 20 26 37 42 47 62 60 70 76 94 97 98 100 100 98 93 89 96 97 87 85 85 92 92 78 76 66 62 59 49 33 19 15 15 16 13 11
26 15 12 15 16 18 20 23 30 43 52 51 57 57 63 64 66 69 79 82 83 98 96 100 100 100 96 97 97 84 79 75 72 73 62 41 23 19 19 19 17 16 15
32 30 18 13 15 18 19 21 28 42 55 62 58 61 66 63 68 74 78 87 100 100 100 100 99 99 99 96 91 78 81 82 82 69 42 28 21 20 22 22 20 18 17
34 27 27 24 21 16 16 18 23 32 49 68 66 67 77 78 92 87 79 100 100 100 100 99 98 97 96 95 87 83 87 86 70 47 30 24 24 24 23 21 21 20 18
68 62 31 26 28 32 20 16 18 27 43 56 73 70 74 90 100 100 100 97 100 98 93 96 96 96 97 89 80 88 84 74 59 33 30 25 25 24 24 23 22 20 19
79 82 71 38 38 30 29 28 20 22 37 47 64 74 96 100 99 100 100 100 95 99 94 95 96 96 92 85 90 85 81 54 34 33 30 27 27 26 23 20 18 16 17
83 92 91 75 68 43 39 39 32 25 37 52 52 74 96 99 99 100 100 100 100 100 97 98 92 94 93 91 88 81 51 36 33 33 31 30 28 23 18 14 14 16 20
87 96 99 100 94 70 62 43 44 42 43 70 72 77 94 97 99 98 100 100 98 95 95 97 94 94 94 92 78 54 40 34 34 33 33 27 19 12 12 13 15 21 34
98 98 97 100 94 75 58 40 48 37 63 100 96 95 98 100 100 100 100 100 96 96 97 94 93 93 88 74 53 39 36 34 35 31 22 12 11 10 9 9 15 28 49
100 100 99 84 90 76 47 58 61 49 96 99 100 100 100 100 99 97 97 97 96 94 96 93 82 78 75 53 39 36 37 35 26 14 11 9 7 6 5 9 17 37 58
98 100 97 100 100 95 98 100 67 77 100 100 100 100 100 96 96 96 95 97 96 93 85 76 78 72 49 38 38 38 30 17 11 9 7 5 4 4 4 6 12 32 52
96 96 100 96 98 98 99 100 99 98 99 99 98 96 95 96 98 96 96 97 90 80 77 81 65 46 39 39 34 22 12 10 8 5 3 3 3 4 4 5 6 13 32
98 99 100 100 97 98 98 97 97 97 96 96 96 96 98 96 95 96 96 92 86 84 78 56 44 39 35 27 14 10 8 6 3 3 3 3 4 3 4 4 4 5 11
96 96 96 96 96 96 96 96 96 96 96 97 96 96 96 96 96 95 83 83 88 70 51 42 37 32 18 11 8 6 4 3 3 3 4 4 4 4 4 4 4 4 5